[[{"header":{"parameterUnit":"m.s-1","parameterCategory":1,"la1":30.2991,"la2":30.254,"lo1":-89.0895,"lo2":-89.0444,"dy":0.0017,"dx":0.0017,"nx":28,"ny":28,"refTime":"2024-10-07T21:00:00:Z","depth":0,"parameterNumber":2,"parameterNumberName":"U-component_of_WINDS"},"data":[0,0,0,0,0,0,0,0,0,0,0,0,0,0,0,0,0,0,0,0,0,0,0,0,0,0,0,0,0,0,0,0,0,0,0,0,0,0,0,0,0,0,0,0,0,0,0,0,0,0,0,0,0,0,0,0,0,0,-0.9382,-0.9383,0,-0.9431,-0.9431,-0.9432,-0.9418,-0.9417,-0.9416,-0.9415,-0.9466,-0.9468,-0.947,0,0,0,0,0,0,0,0,0,0,0,0,0,-0.9279,-0.9281,-0.9382,-0.9383,-0.9384,-0.9431,-0.9431,-0.9432,-0.9418,-0.9417,-0.9416,-0.9415,-0.9465,-0.9468,-0.9471,0,0,0,0,0,0,0,0,0,0,0,0,0,-0.9325,-0.9282,-0.9382,-0.9382,-0.9383,-0.9431,-0.9431,-0.9432,-0.9418,-0.9417,-0.9415,-0.9414,-0.9464,-0.9468,-0.9471,-0.9522,0,0,-0.9481,-0.9483,0,0,0,0,0,0,0,0,-0.9323,-0.9329,-0.9382,-0.9382,-0.9383,-0.9417,-0.9413,-0.9462,-0.9419,-0.9405,-0.9415,-0.9413,-0.9451,-0.9455,-0.9468,-0.9524,-0.9527,-0.9482,-0.9484,-0.9485,-0.9486,0,0,0,0,0,0,0,-0.9319,-0.9327,-0.9402,-0.9382,-0.9383,-0.938,-0.9385,-0.9423,-0.9436,-0.9406,-0.9405,-0.9411,-0.9451,-0.9464,-0.9469,-0.9527,-0.9482,-0.9485,-0.9487,-0.9488,-0.9628,-0.963,0,0,0,0,0,0,-0.9316,-0.9324,-0.94,-0.9403,-0.9348,-0.9383,-0.9389,-0.9407,-0.9435,-0.9438,-0.9412,-0.941,-0.9459,-0.9465,-0.947,-0.9533,-0.9485,-0.9488,-0.949,-0.9627,-0.9629,-0.9631,0,0,0,0,0,0,-0.9313,-0.9323,-0.9398,-0.9363,-0.9373,-0.9387,-0.9408,-0.9409,-0.9423,-0.944,-0.9442,-0.9424,-0.9458,-0.9466,-0.9509,-0.9534,-0.949,-0.9493,-0.9625,-0.9627,-0.963,-0.9657,0,0,0,0,0,0,-0.9311,-0.9322,-0.9341,-0.9364,-0.9375,-0.9436,-0.9409,-0.9411,-0.9428,-0.9426,-0.9451,-0.9454,-0.9458,-0.9504,-0.9513,-0.9538,-0.9496,-0.9623,-0.9626,-0.9629,-0.9654,-0.966,-0.9665,0,0,0,0,0,-0.9307,-0.9347,-0.9342,-0.9352,-0.9399,-0.9437,-0.9444,-0.9447,-0.943,-0.945,-0.9461,-0.9453,-0.953,-0.9509,-0.9518,-0.9545,-0.9621,-0.9625,-0.9629,-0.9652,-0.9659,-0.9665,0,0,0,0,0,0,-0.9328,-0.935,-0.9345,-0.9394,-0.9414,-0.9435,-0.946,-0.9455,-0.948,-0.9477,-0.948,-0.9486,-0.9531,-0.9542,-0.9518,-0.9596,-0.9573,-0.9579,-0.9587,-0.9594,-0.96,-0.9597,-0.9499,0,0,0,0,0,-0.9338,-0.9367,-0.9385,-0.9426,-0.9436,-0.9447,-0.9463,-0.9464,-0.9485,-0.9493,-0.9507,-0.9528,-0.9557,-0.9576,-0.9604,-0.9655,-0.9661,-0.9678,-0.9684,-0.9688,-0.9694,-0.9722,-0.9731,-0.9643,-0.9643,-0.9643,0,0,-0.936,-0.9375,-0.9394,-0.9431,-0.9446,-0.9477,-0.9454,-0.9487,-0.9509,-0.9498,-0.9541,-0.9552,-0.9575,-0.9623,-0.9645,-0.9634,-0.9719,-0.9693,-0.9697,-0.97,-0.9727,-0.9735,-0.9743,-0.9646,-0.9645,-0.9645,0,0,-0.9415,-0.9429,-0.9466,-0.9481,-0.9505,-0.9511,-0.952,-0.9541,-0.9548,-0.959,-0.9583,-0.961,-0.9659,-0.9676,-0.9692,-0.9752,-0.9746,-0.9761,-0.9791,-0.9819,-0.9826,-0.9832,-0.9855,-0.9863,-0.9766,-0.9766,-0.9766,0,-0.9439,-0.9484,-0.9485,-0.9519,-0.9535,-0.9526,-0.9563,-0.9578,-0.961,-0.9622,-0.9609,-0.967,-0.9685,-0.9737,-0.9752,-0.9764,-0.9775,-0.9759,-0.9825,-0.9831,-0.9837,-0.9858,-0.9867,-0.9768,-0.9767,-0.9767,-0.9767,0,-0.9513,-0.9544,-0.957,-0.9601,-0.962,-0.9655,-0.9662,-0.9682,-0.968,-0.9688,-0.9731,-0.9748,-0.9779,-0.9791,-0.979,-0.9843,-0.9836,-0.9824,-0.9801,-0.9847,-0.9867,-0.9875,-0.977,-0.977,-0.9769,-0.9769,0,0,-0.9584,-0.9614,-0.9624,-0.9637,-0.9662,-0.9686,-0.972,-0.975,-0.9768,-0.9789,-0.9819,-0.986,-0.9849,-0.9866,-0.9867,-0.9891,-0.9939,-0.9876,-0.9876,-0.9888,-0.9999,-1.0009,-1.0019,-0.9934,-0.9935,-0.9937,-0.9997,0,-0.9643,-0.9703,-0.9705,-0.9761,-0.979,-0.978,-0.981,-0.9829,-0.9837,-0.9863,-0.9871,-0.9901,-0.9884,-0.9894,-0.9917,-0.9928,-0.9961,-0.9923,-0.9962,-0.9964,-0.9958,-1.0029,-1.004,-1.0097,-1.0005,-1.0006,-1.0007,0,-0.9719,-0.9743,-0.9801,-0.9821,-0.9834,-0.9861,-0.9888,-0.9913,-0.9933,-0.9937,-0.9956,-0.9953,-0.9988,-0.9963,-1.0013,-0.9987,-1.0003,-1.001,-1.0012,-1.0017,-0.999,-1.0037,-1.0115,-1.0124,-1.002,-1.0019,-1.0018,0,-0.9767,-0.9813,-0.9854,-0.9866,-0.989,-0.9909,-0.9921,-0.994,-0.9957,-0.9981,-0.9993,-1.002,-1.0036,-1.0057,-1.0062,-1.0043,-1.0111,-1.0086,-1.0117,-1.0117,-1.0133,-1.0132,-1.0215,-1.014,-1.014,-1.014,-1.014,0,-0.9833,-0.9869,-0.9876,-0.9901,-0.9942,-0.9943,-0.9983,-0.9993,-1.001,-1.0037,-1.003,-1.0056,-1.006,-1.0087,-1.009,-1.0131,-1.0138,-1.0142,-1.0143,-1.0144,-1.0144,-1.0156,-1.0153,-1.0142,-1.0142,-1.0142,-1.0141,0,-0.9894,-0.9899,-0.9944,-0.9963,-0.9968,-0.9998,-1.0014,-1.0039,-1.0045,-1.008,-1.0088,-1.0098,-1.013,-1.0136,-1.0172,-1.0175,-1.0224,-1.022,-1.0217,-1.0217,-1.0247,-1.0245,-1.0342,-1.0356,-1.0271,-1.0272,-1.0272,0,-0.9936,-0.9964,-0.9986,-1.0003,-1.0015,-1.0044,-1.0062,-1.0063,-1.0082,-1.0107,-1.0129,-1.0159,-1.0184,-1.0234,-1.0245,-1.0273,-1.0271,-1.0303,-1.0275,-1.0275,-1.0273,-1.0272,-1.0275,-1.0309,-1.031,-1.0311,-1.0311,0,-1.0011,-1.0013,-1.0038,-1.0065,-1.0087,-1.0108,-1.0128,-1.0143,-1.0147,-1.0169,-1.02,-1.0219,-1.0256,-1.0287,-1.0315,-1.0326,-1.032,-1.032,-1.0328,-1.033,-1.0328,-1.0331,-1.0233,-1.0318,-1.0317,-1.0317,-1.0316,-1.0316,-1.0066,-1.009,-1.0109,-1.0138,-1.0153,-1.0172,-1.0196,-1.0205,-1.0231,-1.0261,-1.026,-1.0295,-1.0315,-1.0352,-1.0365,-1.0392,-1.0382,-1.0395,-1.0398,-1.0401,-1.0405,-1.0322,-1.0397,-1.0397,-1.0397,-1.0397,-1.0397,0,-1.0142,-1.0153,-1.0179,-1.0208,-1.023,-1.0221,-1.0242,-1.0262,-1.0293,-1.0311,-1.0335,-1.0372,-1.0401,-1.0414,-1.0443,-1.0462,-1.046,-1.047,-1.0469,-1.0472,-1.0412,-1.0402,-1.0471,-1.0471,-1.0471,-1.0471,-1.0471,-1.0471,-1.0184,-1.0225,-1.0228,-1.0277,-1.0288,-1.0322,-1.0335,-1.0352,-1.0367,-1.0408,-1.0432,-1.044,-1.0456,-1.0486,-1.0512,-1.0515,-1.0527,-1.0538,-1.054,-1.0484,-1.0476,-1.0469,-1.046,-1.054,-1.0541,-1.0599,-1.0599,-1.06]},{"header":{"parameterUnit":"m.s-1","parameterCategory":1,"la1":30.2991,"la2":30.254,"lo1":-89.0895,"lo2":-89.0444,"dy":0.0017,"dx":0.0017,"nx":28,"ny":28,"refTime":"2024-10-07T21:00:00:Z","depth":0,"parameterNumber":3,"parameterNumberName":"V-component_of_WINDS"},"data":[0,0,0,0,0,0,0,0,0,0,0,0,0,0,0,0,0,0,0,0,0,0,0,0,0,0,0,0,0,0,0,0,0,0,0,0,0,0,0,0,0,0,0,0,0,0,0,0,0,0,0,0,0,0,0,0,0,0,-5.1388,-5.1388,0,-5.1414,-5.1414,-5.1415,-5.1359,-5.1357,-5.1355,-5.1353,-5.1376,-5.1378,-5.138,0,0,0,0,0,0,0,0,0,0,0,0,0,-5.1286,-5.1288,-5.1388,-5.1388,-5.1389,-5.1414,-5.1414,-5.1415,-5.1359,-5.1357,-5.1355,-5.1352,-5.1375,-5.1378,-5.138,0,0,0,0,0,0,0,0,0,0,0,0,0,-5.1323,-5.1289,-5.1388,-5.1364,-5.1362,-5.1414,-5.1414,-5.1415,-5.1359,-5.1357,-5.1354,-5.1351,-5.1374,-5.1377,-5.1381,-5.1456,0,0,-5.1391,-5.1393,0,0,0,0,0,0,0,0,-5.1321,-5.1327,-5.1367,-5.1366,-5.1364,-5.138,-5.1387,-5.1428,-5.136,-5.136,-5.1353,-5.135,-5.1379,-5.1382,-5.1393,-5.1457,-5.1458,-5.1391,-5.1393,-5.1395,-5.1396,0,0,0,0,0,0,0,-5.1319,-5.1325,-5.1398,-5.1368,-5.1366,-5.1351,-5.1353,-5.1394,-5.1384,-5.136,-5.1356,-5.136,-5.1378,-5.1389,-5.1393,-5.1458,-5.1391,-5.1394,-5.1396,-5.1398,-5.1586,-5.1588,0,0,0,0,0,0,-5.132,-5.1324,-5.1397,-5.1399,-5.1335,-5.1355,-5.1357,-5.1378,-5.1384,-5.1382,-5.1362,-5.1357,-5.1385,-5.1389,-5.1393,-5.1482,-5.1395,-5.1398,-5.14,-5.1583,-5.1586,-5.1589,0,0,0,0,0,0,-5.1318,-5.1327,-5.1396,-5.136,-5.1368,-5.1359,-5.1383,-5.138,-5.1391,-5.1386,-5.1383,-5.1377,-5.1383,-5.1388,-5.1441,-5.1482,-5.14,-5.1403,-5.1579,-5.1584,-5.1588,-5.166,0,0,0,0,0,0,-5.1315,-5.1326,-5.1356,-5.1361,-5.137,-5.1445,-5.1385,-5.1382,-5.1398,-5.1392,-5.1398,-5.1397,-5.1381,-5.1436,-5.1444,-5.1485,-5.1405,-5.1576,-5.1581,-5.1587,-5.1654,-5.1667,-5.1677,0,0,0,0,0,-5.1311,-5.1374,-5.1357,-5.1367,-5.1407,-5.1447,-5.1452,-5.1435,-5.1402,-5.143,-5.1427,-5.1397,-5.1476,-5.1442,-5.1451,-5.1493,-5.1573,-5.158,-5.1586,-5.1649,-5.1664,-5.1677,0,0,0,0,0,0,-5.1371,-5.1374,-5.1356,-5.1422,-5.1435,-5.1438,-5.1474,-5.1451,-5.1472,-5.1465,-5.1441,-5.1443,-5.15,-5.1502,-5.1464,-5.1567,-5.1519,-5.1528,-5.1564,-5.1578,-5.1589,-5.1588,-5.1408,0,0,0,0,0,-5.1392,-5.1426,-5.1426,-5.1485,-5.1493,-5.1482,-5.1499,-5.1485,-5.1497,-5.1501,-5.1501,-5.1513,-5.1541,-5.1559,-5.1584,-5.1654,-5.1655,-5.1688,-5.1699,-5.1709,-5.1716,-5.1754,-5.1769,-5.1611,-5.1611,-5.1611,0,0,-5.1435,-5.1441,-5.1464,-5.1497,-5.1505,-5.154,-5.1487,-5.1526,-5.1551,-5.1507,-5.1557,-5.1558,-5.1569,-5.1631,-5.1658,-5.1634,-5.176,-5.1717,-5.1725,-5.1727,-5.1762,-5.1777,-5.1791,-5.1616,-5.1615,-5.1614,0,0,-5.1532,-5.154,-5.159,-5.1601,-5.1615,-5.1608,-5.162,-5.1627,-5.1626,-5.1677,-5.1644,-5.1673,-5.1721,-5.1731,-5.1742,-5.1845,-5.1818,-5.1853,-5.1914,-5.1951,-5.1963,-5.1974,-5.2011,-5.2024,-5.1861,-5.1861,-5.1861,0,-5.1584,-5.1637,-5.1618,-5.1661,-5.1676,-5.1639,-5.1689,-5.1699,-5.172,-5.1731,-5.1704,-5.1765,-5.177,-5.1834,-5.1859,-5.1869,-5.1882,-5.1852,-5.1963,-5.1974,-5.1983,-5.2018,-5.2032,-5.1866,-5.1865,-5.1865,-5.1864,0,-5.17,-5.1737,-5.1775,-5.1799,-5.1819,-5.1865,-5.1852,-5.1874,-5.1858,-5.1854,-5.1906,-5.1911,-5.1937,-5.1951,-5.1934,-5.2013,-5.1997,-5.1967,-5.1919,-5.2003,-5.2036,-5.2049,-5.1872,-5.187,-5.1869,-5.1868,0,0,-5.1834,-5.1849,-5.1863,-5.1874,-5.1887,-5.1915,-5.1959,-5.1986,-5.2006,-5.2021,-5.2057,-5.21,-5.2073,-5.2085,-5.207,-5.2102,-5.2184,-5.2068,-5.2068,-5.209,-5.2271,-5.2294,-5.231,-5.2166,-5.2169,-5.2171,-5.227,0,-5.193,-5.2008,-5.1994,-5.2069,-5.2103,-5.2069,-5.2107,-5.212,-5.2117,-5.2144,-5.214,-5.2171,-5.2133,-5.214,-5.2171,-5.2168,-5.222,-5.216,-5.2199,-5.2201,-5.2198,-5.2327,-5.2351,-5.2444,-5.2283,-5.2285,-5.2286,0,-5.2053,-5.2077,-5.2156,-5.2166,-5.2179,-5.2214,-5.2239,-5.2266,-5.2278,-5.2274,-5.229,-5.2268,-5.2311,-5.2263,-5.2321,-5.2281,-5.2296,-5.2297,-5.23,-5.2303,-5.2249,-5.2333,-5.2473,-5.2488,-5.2306,-5.2304,-5.2303,0,-5.2144,-5.2195,-5.2249,-5.2259,-5.2272,-5.2297,-5.2303,-5.2313,-5.2331,-5.2352,-5.2363,-5.2388,-5.2401,-5.242,-5.2406,-5.2372,-5.2467,-5.2417,-5.2464,-5.2465,-5.2486,-5.2485,-5.2631,-5.2495,-5.2495,-5.2495,-5.2495,0,-5.2254,-5.2304,-5.2291,-5.2324,-5.2379,-5.2361,-5.2416,-5.2417,-5.2427,-5.246,-5.2431,-5.2461,-5.2441,-5.247,-5.2458,-5.2509,-5.2515,-5.2512,-5.2509,-5.2515,-5.2516,-5.2524,-5.2518,-5.2499,-5.2498,-5.2497,-5.2496,0,-5.2364,-5.2357,-5.2415,-5.2423,-5.2426,-5.2466,-5.2472,-5.2502,-5.2498,-5.254,-5.2548,-5.2541,-5.2573,-5.2561,-5.2595,-5.2588,-5.2653,-5.264,-5.2649,-5.2646,-5.2694,-5.269,-5.2851,-5.2871,-5.2723,-5.2724,-5.2725,0,-5.2435,-5.2473,-5.2486,-5.2507,-5.2515,-5.2549,-5.2567,-5.2551,-5.2571,-5.259,-5.2618,-5.2649,-5.2672,-5.2725,-5.2722,-5.2748,-5.2737,-5.2791,-5.274,-5.2746,-5.2738,-5.2736,-5.274,-5.2802,-5.2803,-5.2805,-5.2806,0,-5.2561,-5.2556,-5.2585,-5.2613,-5.2637,-5.2658,-5.2676,-5.2694,-5.2679,-5.2703,-5.2737,-5.2756,-5.2791,-5.2822,-5.2845,-5.285,-5.2826,-5.2822,-5.2835,-5.2841,-5.2845,-5.2844,-5.2677,-5.2818,-5.2817,-5.2816,-5.2816,-5.2815,-5.2654,-5.2687,-5.2701,-5.2735,-5.2747,-5.2765,-5.2795,-5.2795,-5.2824,-5.2853,-5.2842,-5.2881,-5.2893,-5.2922,-5.293,-5.296,-5.2939,-5.2956,-5.2961,-5.2966,-5.2972,-5.2841,-5.2964,-5.2964,-5.2963,-5.2963,-5.2963,0,-5.2779,-5.2787,-5.2818,-5.2846,-5.2872,-5.2849,-5.2868,-5.2891,-5.2926,-5.294,-5.2965,-5.3004,-5.3034,-5.3034,-5.3061,-5.3085,-5.3075,-5.3093,-5.3091,-5.3093,-5.299,-5.2977,-5.3101,-5.3101,-5.3101,-5.3101,-5.3101,-5.3101,-5.2847,-5.2902,-5.2899,-5.2959,-5.2966,-5.3007,-5.302,-5.3036,-5.3047,-5.3093,-5.3118,-5.3119,-5.3127,-5.3155,-5.3181,-5.318,-5.3192,-5.3215,-5.321,-5.3113,-5.31,-5.3087,-5.3074,-5.3217,-5.3217,-5.331,-5.3311,-5.3311]}]]